Location: Udine
(46.0620°N, 13.2420°E)
Time: 03:23:02
(UTC+02:00)

ISS - Pass Details

Date: 15 May 2021
Orbit: 417 x 422 km, 51.6° (Epoch: 14 June)

Event Time Altitude Azimuth Distance (km) Brightness Sun altitude
Rises 22:01:07 0° 226° (SW) 2,352 0.1 -12.9°
Reaches altitude 10° 22:03:14 10° 221° (SW) 1,493 -1.0 -13.2°
Maximum altitude 22:06:28 48° 145° (SE) 553 -3.6 -13.6°
Drops below altitude 10° 22:09:45 10° 70° (ENE) 1,504 -1.2 -14.0°
Sets 22:11:53 0° 65° (ENE) 2,372 -0.1 -14.2°
